Flag for Colombia Weather past 2 weeks in Manizales, Colombia

Now
68 °F

Passing clouds.


Feels Like: 68 °F
Forecast: 55 / 75 °F
Wind: 10 mph from East

Location: Pereira / Matecana

Current Time: Jul 28, 2015 at 1:12:30 AM

Latest Report: Jul 28, 2015 at 12:00 AM


Visibility: N/A

Pressure: 29.99 "Hg (23.37 "Hg at 2139m altitude)

Humidity: 78%

Dew point: 61 °F

Location of ManizalesLocation

Historic Weather in Manizales — Graph

°F

Manizales temperature yesterday

Maximum temperature yesterday: 79 °F (at 11:00 AM)
Minimum temperature yesterday: 66 °F (at 5:00 AM)
Average temperature yesterday: 72 °F

Past Weeks' High & Low Weather Summary

 TemperatureHumidityPressure
High86 °F (Jul 13, 4:00 PM)100% (Jul 20, 5:00 AM)30.17 "Hg (Jul 20, 5:00 AM)
Low63 °F (Jul 24, 6:00 AM)40% (Jul 24, 5:00 PM)29.89 "Hg (Jul 25, 4:00 PM)
Average73 °F75%30.05 "Hg
* Reported Midnight between Jul 12 and Jul 13 — Midnight between Jul 27 and Jul 28, Manizales, Weather by CustomWeather, © 2015

Note: Actual official high and low records may vary slightly from our data, if they occured in-between our weather recording intervals... More about our weather records

Advertising

Manizales weather history for previous 24 hours

 ConditionsComfort  
Time TempWeatherWind HumidityBarometerVisibility
12:00 AM
Tue, Jul 28
68 °FPassing clouds.10 mph78%29.99 "HgN/A
11:00 PM
Mon, Jul 27
68 °FPassing clouds.9 mph83%30.00 "HgN/A
10:00 PM70 °FPassing clouds.7 mph78%30.00 "HgN/A
9:00 PM72 °FPassing clouds.2 mph73%29.99 "HgN/A
8:00 PM72 °FPassing clouds.9 mph78%29.97 "HgN/A
7:00 PM72 °FPassing clouds.6 mph78%29.95 "HgN/A
6:00 PM73 °FScattered clouds.2 mph69%29.94 "HgN/A
5:00 PM75 °FScattered clouds.2 mph74%29.91 "HgN/A
4:00 PM72 °FScattered clouds.9 mph78%29.91 "HgN/A
3:00 PM68 °FLight rain. Partly sunny.9 mph88%29.94 "Hg5 mi
2:00 PM72 °FDrizzle. Broken clouds.8 mph83%29.95 "Hg5 mi
1:00 PM72 °FThunderstorms. Broken clouds.3 mph88%29.97 "Hg5 mi
12:00 PM79 °FScattered clouds.7 mph65%30.00 "HgN/A
11:00 AM79 °FScattered clouds.6 mph65%30.01 "HgN/A
10:00 AM73 °FScattered clouds.3 mph74%30.03 "HgN/A
9:00 AM73 °FScattered clouds.3 mph74%30.04 "HgN/A
8:00 AM72 °FPassing clouds.3 mph69%30.03 "HgN/A
7:00 AM66 °FScattered clouds.7 mph83%30.03 "HgN/A
6:00 AM66 °FPartly sunny.9 mph83%30.01 "HgN/A
5:00 AM66 °FPassing clouds.9 mph78%29.98 "HgN/A
1:00 AM72 °FPassing clouds.5 mph69%29.98 "HgN/A
Weather by CustomWeather, © 2015

See weather overviewHow to use our weather pages